Weather in Volchikha

Russia / Nizhny Novgorod Oblast'     55°35′04″N   43°54′32″E
temp.,
°C
wind,
m/s
gust,
m/s
humid.,
%
clouds,
%
prec.,
mm/h
press.,
hPa
HPBL,
m
5 march, fri
fri500:00−8nw2293100 0.0 99921
03:00−9nnw2293100 0.0 100121
06:00−8nnw2296100 0.3 100258
09:00−9nw249478 0.3 1004170
12:00−5wnw358952 0.0 1006505
15:00−3w468375 0.1 1007854
18:00−6sw359499 0.2 1008124
21:00−9w489278 0.3 1010126
6 march, sat
sat600:00−9wnw499549 0.1 1012300
03:00−15wnw349353 0.1 101568
06:00−17w23900 0.0 101520
09:00−13wsw35890 0.0 1016157
12:00−9wsw35870 0.0 1016348
15:00−6wsw469029 0.1 1014638
18:00−9wnw2393100 0.3 101439
21:00−13wnw129598 0.3 101421
7 march, sun
sun700:00−14w229893 0.1 101320
03:00−17sw239680 0.1 101221
06:00−17ssw34930 0.0 101156
09:00−11ssw5109342 0.0 1008331
12:00−7ssw71386100 0.0 1004687
15:00−5ssw81382100 0.0 10001096
18:00−5ssw71493100 0.8 9961049
21:00−5wsw91391100 2.4 994892
8 march, mon
mon800:00−7w7148798 0.3 995878
03:00−11wsw6139077 0.3 997422
06:00−11sw6139138 0.0 996401
09:00−10sw7139170 0.1 996545
12:00−7sw61190100 0.1 995693
15:00−5sw71081100 0.6 9951045
18:00−7wnw81394100 1.3 996829
21:00−11w51292100 1.7 999430
9 march, tue
tue900:00−9wnw6129298 0.2 1002585
03:00−12wnw5119397 0.3 1005410
06:00−15w4896100 0.1 1008222
09:00−14wnw4793100 0.1 1010380
12:00−11wnw4588100 0.1 1011629
15:00−11nw4687100 0.2 1012766
18:00−13wnw2495100 0.1 1012101
21:00−14wnw369697 0.2 1014203